Theta_e
335 335 335 335 335 336 334 334 334 333 333 335 336 338 338 338 338 338 337 337 338 338 338 339 339 339 339 340 340 339 339 339 339 339 338 339 339 339 339 339 338 336
333 334 335 334 334 333 333 334 334 334 333 332 332 333 336 337 337 338 338 338 338 338 339 339 339 339 339 339 339 340 340 340 340 340 339 338 338 338 339 339 338 337
330 331 332 332 331 331 331 332 333 334 333 332 332 331 331 334 336 337 336 337 337 337 337 337 338 337 336 338 339 340 340 340 340 340 339 338 337 337 338 339 339 338
330 330 330 330 330 330 330 331 332 332 332 331 332 332 331 331 333 334 334 335 335 335 335 336 337 337 336 338 340 340 340 340 341 341 339 338 337 337 337 338 339 338
331 332 332 331 331 330 330 330 331 331 331 331 330 331 331 331 332 332 332 333 334 335 336 337 337 338 339 339 340 340 340 340 341 340 340 338 338 337 337 338 339 338
329 331 332 332 332 331 330 331 332 332 332 331 331 332 332 332 331 332 332 332 332 334 336 337 338 339 340 340 340 341 340 340 340 340 339 339 338 338 337 338 339 338
325 329 332 332 332 332 331 332 332 332 332 332 333 333 334 333 333 333 333 332 332 333 334 336 338 339 340 340 340 341 340 340 340 340 340 339 338 338 338 338 338 338
319 325 330 332 333 333 332 332 332 332 332 332 333 333 334 333 333 333 333 332 332 333 333 335 337 338 340 340 340 340 340 340 340 340 340 339 339 338 338 338 338 338
316 318 323 327 330 332 333 333 333 333 333 333 333 333 333 333 333 333 332 332 332 332 333 333 335 336 338 339 340 340 340 340 340 340 340 339 339 339 338 338 337 337
315 315 316 319 322 326 328 330 332 332 333 333 334 334 334 334 334 334 334 333 333 332 332 332 333 335 336 338 339 339 340 340 340 340 340 339 339 339 338 338 338 338
315 316 316 315 316 318 320 323 326 328 330 332 333 333 334 334 335 334 335 334 334 333 332 332 333 333 334 336 337 338 339 339 339 339 339 339 339 339 339 338 338 338
315 315 316 315 315 315 316 317 319 321 324 326 328 331 332 333 334 334 334 334 334 334 333 332 332 333 333 334 335 336 337 338 338 339 339 339 339 339 339 338 338 338
314 315 315 315 315 315 315 315 316 316 318 319 321 324 326 328 330 331 332 333 334 334 334 334 333 333 333 333 334 334 335 336 336 337 337 338 338 339 339 338 338 338
313 313 314 314 315 315 315 315 315 315 316 316 316 318 319 322 324 327 329 331 331 332 333 333 334 334 334 334 334 334 334 334 335 336 336 336 337 338 338 338 338 338
311 312 312 313 314 314 315 315 315 315 315 315 315 315 316 317 319 321 323 325 327 329 330 330 332 333 334 334 335 335 335 335 335 335 336 336 336 337 337 337 337 337
310 310 310 311 311 312 313 313 314 314 314 314 315 315 315 315 315 316 317 318 320 322 325 327 329 330 332 333 333 334 334 335 335 335 335 335 336 336 336 336 337 337
309 309 309 310 310 310 311 311 312 312 313 313 314 314 314 314 314 315 315 315 315 316 317 320 322 325 327 329 331 332 334 334 335 335 335 335 335 336 336 336 336 336
308 308 309 309 309 309 310 310 310 311 311 311 312 313 313 313 313 313 314 314 314 314 315 315 316 317 319 322 325 327 330 332 333 335 335 335 335 335 335 336 336 336
308 308 308 309 309 309 309 310 310 310 310 310 311 311 311 311 311 311 312 312 313 313 314 314 315 315 315 316 317 319 322 326 329 332 334 334 335 336 335 335 336 336
307 307 308 308 308 309 309 309 309 309 310 310 310 310 310 310 310 310 310 310 311 311 312 312 313 314 314 314 315 315 316 318 322 327 331 332 333 334 335 336 336 336
307 307 307 307 308 308 309 309 309 309 309 309 309 309 310 310 310 310 310 310 310 311 311 311 311 312 313 313 313 314 314 314 316 320 325 329 330 331 333 334 336 336
306 306 307 307 308 308 308 308 308 309 309 309 309 309 309 309 309 310 310 310 310 311 311 311 311 311 312 312 312 312 313 313 313 315 318 323 326 328 330 332 333 335
306 306 306 307 307 307 308 308 308 308 308 308 308 308 308 309 309 309 309 310 310 310 311 311 311 311 311 312 312 312 312 312 313 314 315 318 321 323 326 328 330 332
305 306 306 306 307 307 307 307 306 307 307 307 308 308 308 308 309 309 309 309 310 310 310 311 311 312 312 312 312 312 312 312 312 313 315 317 318 319 321 324 326 329
305 305 305 306 307 307 306 306 305 305 305 306 306 307 307 308 308 309 309 309 309 310 310 310 311 311 312 312 312 312 312 312 313 313 314 316 317 319 321 322 324 326
304 305 305 306 306 306 305 304 303 303 303 303 304 305 305 306 307 308 308 309 309 309 310 310 311 311 311 312 312 312 312 312 312 312 313 315 316 318 321 322 324 325
Wind_Speed
18 17 16 18 21 23 22 20 19 17 18 21 24 27 28 27 25 25 26 27 27 28 28 28 28 28 27 26 26 26 26 26 25 24 24 26 26 26 27 28 29 29
16 17 18 18 18 20 22 24 25 24 22 21 23 24 25 26 25 25 27 28 28 29 29 29 28 27 26 26 26 27 27 27 27 26 25 27 27 27 27 27 28 29
11 13 16 18 18 19 21 22 25 28 27 25 25 25 23 23 23 24 26 28 30 31 31 31 30 27 27 27 28 29 29 29 28 27 27 28 28 28 27 26 27 29
7 9 11 14 14 17 19 18 20 25 25 23 23 23 24 24 24 23 24 25 27 30 31 32 31 30 29 29 29 30 31 30 29 28 28 29 30 29 28 26 27 29
6 7 8 9 10 12 15 15 17 21 22 21 21 21 22 24 25 24 24 23 24 27 29 30 31 32 31 30 30 30 31 30 30 28 29 29 30 30 29 27 27 29
7 7 8 9 10 10 11 13 15 18 20 21 20 20 20 22 24 25 24 23 23 25 27 28 29 31 31 30 30 30 30 30 30 29 29 29 29 30 30 29 28 29
11 7 6 8 10 10 9 10 11 13 16 18 19 18 18 21 25 26 25 24 23 23 25 26 28 29 30 30 30 30 30 30 29 29 29 29 29 29 30 30 30 30
16 10 7 6 8 8 9 10 10 11 13 17 18 18 19 21 25 25 25 24 23 23 24 26 27 29 30 30 30 31 31 30 30 29 29 29 29 30 31 31 31 31
17 15 12 8 7 8 8 9 9 10 11 14 16 16 18 20 22 23 24 24 24 25 25 26 28 29 29 29 30 31 31 31 30 30 29 29 30 31 32 31 30 32
16 16 15 14 11 9 9 8 8 8 9 10 12 14 15 16 18 21 22 23 25 25 26 27 28 29 29 29 29 31 31 31 30 30 30 30 31 32 31 30 30 32
15 16 16 15 14 13 11 10 9 7 7 8 9 11 12 14 16 17 19 20 22 23 25 26 26 28 28 28 29 29 30 31 30 30 30 30 31 32 31 31 31 33
15 15 15 15 14 13 12 10 9 8 7 7 7 8 9 12 14 15 16 18 19 21 24 25 26 26 27 28 29 29 29 30 31 31 31 31 32 32 32 32 32 34
14 13 13 12 12 11 10 9 8 7 7 6 5 5 6 8 10 12 14 15 16 18 20 23 25 26 27 27 28 29 29 30 31 31 32 32 33 33 33 33 33 35
12 12 10 10 9 9 8 8 7 6 6 6 5 4 4 5 6 8 10 11 13 14 15 18 21 24 25 26 26 27 27 29 30 30 31 32 33 34 34 33 34 35
13 11 10 10 9 9 8 8 8 7 7 6 6 6 5 5 5 6 8 9 11 12 13 14 17 19 21 22 23 24 25 26 28 29 31 32 33 33 34 34 34 35
14 13 12 12 12 11 11 11 11 11 11 10 10 10 9 9 9 8 8 9 10 11 13 14 15 16 17 18 19 21 22 24 26 28 30 31 32 33 34 34 35 36
17 16 15 14 13 13 13 13 14 14 15 15 15 14 14 14 14 13 13 13 13 14 14 15 16 16 16 17 17 18 20 22 25 27 29 30 32 33 34 34 35 36
20 20 18 17 16 15 15 15 15 16 16 17 18 18 18 18 18 18 18 18 18 18 19 19 19 18 17 17 17 18 18 20 24 26 28 30 31 32 33 34 35 36
22 22 22 21 19 18 18 17 17 17 17 18 19 19 20 20 20 20 21 21 21 22 23 23 23 23 22 20 20 20 20 20 23 26 28 30 31 32 33 34 34 35
22 22 23 23 22 21 21 20 19 19 19 19 20 20 21 21 22 22 22 22 22 22 23 25 26 26 26 25 24 24 23 23 24 26 29 30 31 32 32 33 34 35
21 22 22 23 23 22 22 22 22 22 22 21 21 22 22 23 23 23 23 23 23 23 23 25 26 26 27 27 27 27 27 27 27 28 30 31 32 33 33 34 34 35
21 21 22 22 22 23 23 23 24 24 24 24 23 23 23 23 23 24 24 24 24 24 24 26 27 26 26 27 27 28 28 29 29 31 32 33 34 34 34 34 34 35
21 21 22 22 22 22 22 23 24 25 25 25 24 25 24 23 23 24 24 24 24 24 25 27 28 27 26 27 27 28 29 30 31 33 34 35 36 35 34 34 35 35
21 21 21 21 20 20 20 22 24 24 25 24 24 24 24 24 23 23 24 23 24 24 24 25 28 28 27 28 29 30 31 33 33 34 36 36 35 35 35 35 36 37
21 21 21 21 20 19 20 22 23 23 23 23 22 22 23 23 22 22 23 24 24 24 25 25 28 30 30 30 31 31 32 34 34 36 37 36 34 34 35 36 37 37
22 22 22 21 21 21 21 23 23 23 23 23 22 22 22 22 22 22 24 26 27 27 27 27 28 31 32 32 33 33 33 34 34 36 37 36 34 34 33 34 35 35
Wind_Direction
226 224 228 232 232 230 229 237 247 251 249 242 234 233 235 237 242 243 244 244 243 241 241 241 241 239 237 235 234 234 235 237 239 239 235 234 235 240 246 249 248 246
232 232 233 239 245 244 236 235 237 239 247 256 258 254 249 245 247 250 250 248 247 245 243 242 239 236 235 234 232 231 231 233 236 237 235 232 232 235 241 247 249 247
247 243 238 241 250 256 252 247 241 235 234 242 255 265 267 260 255 255 256 255 253 251 247 244 240 235 234 234 233 231 229 230 233 235 234 232 231 231 236 243 246 246
268 260 252 248 250 253 252 248 240 235 233 234 241 254 264 268 266 263 264 263 260 256 251 247 243 238 235 234 233 231 230 230 233 234 233 232 231 230 233 238 242 244
309 290 279 269 257 244 238 235 234 236 238 236 236 240 249 261 268 269 271 271 267 262 255 250 246 242 239 237 234 233 232 232 232 233 232 232 232 231 231 233 237 240
354 320 296 283 272 255 238 233 235 240 244 245 243 241 245 256 266 271 274 276 274 267 260 255 251 247 244 241 238 236 236 235 234 232 231 232 233 234 234 233 234 236
21 355 314 290 281 271 258 251 251 251 254 256 257 257 257 261 266 270 275 278 278 271 264 259 256 253 249 245 242 241 240 239 237 234 232 232 232 234 235 235 234 235
31 24 2 326 307 295 281 275 276 274 268 265 265 268 268 267 269 272 275 278 278 274 269 265 262 258 254 249 245 244 242 240 238 235 233 232 230 232 234 234 234 235
32 31 26 11 348 328 313 301 294 290 283 276 275 276 275 274 275 276 277 277 276 274 272 269 266 261 258 253 248 246 243 241 240 237 235 233 231 233 234 232 232 235
28 30 30 27 19 4 349 336 322 307 295 287 284 282 279 277 276 275 276 275 273 272 270 268 265 260 257 254 251 248 246 244 242 240 238 236 236 237 235 233 232 234
22 25 26 26 25 22 16 6 353 337 317 300 290 285 281 279 277 276 275 275 273 271 269 266 264 261 256 253 251 249 248 247 246 244 243 241 241 241 238 236 236 237
19 20 21 21 22 23 24 22 16 5 349 332 313 299 291 285 283 281 279 277 275 273 271 268 266 262 258 254 252 250 249 249 248 247 246 245 245 244 241 239 240 242
18 20 19 19 20 21 21 22 24 20 10 359 344 323 309 299 290 285 281 279 277 274 272 270 267 263 260 256 254 252 250 250 249 247 247 247 247 247 245 243 243 245
12 14 12 10 8 7 8 9 10 9 5 1 356 349 339 323 307 296 288 282 277 273 271 270 267 263 260 256 255 253 252 251 251 249 249 249 249 250 249 247 246 247
2 360 355 349 343 340 339 338 337 334 330 328 327 329 329 324 313 303 295 289 284 279 273 269 266 263 260 257 256 255 253 253 253 252 251 251 251 252 251 249 248 248
354 351 346 340 336 332 328 323 320 315 311 308 305 305 305 306 304 299 296 295 294 291 285 278 271 267 266 263 262 261 259 257 255 254 253 252 251 252 252 251 251 250
353 349 344 338 334 331 327 321 316 311 307 305 302 300 299 298 297 295 294 295 295 295 293 289 283 279 276 274 272 270 267 263 259 256 254 253 251 251 251 252 252 252
350 347 344 341 337 333 328 324 319 313 308 304 301 300 300 299 297 294 292 290 290 290 289 288 288 286 285 284 282 280 277 272 267 262 257 254 252 251 251 252 252 252
346 344 342 340 338 336 332 327 323 318 314 310 305 302 301 300 298 295 292 289 288 287 285 284 284 284 285 286 285 284 283 279 274 269 263 259 256 253 252 251 251 251
344 341 338 337 336 335 332 329 326 321 319 316 312 308 304 301 299 297 295 292 289 288 286 284 281 281 282 283 283 283 282 280 277 273 269 265 262 259 256 252 250 249
343 338 335 333 333 332 329 327 325 322 319 318 315 311 307 304 301 300 297 295 293 292 291 287 281 278 278 279 279 281 281 280 278 275 271 268 264 262 259 256 253 250
341 336 332 330 329 328 325 322 320 318 316 315 313 309 306 303 301 300 298 296 296 295 293 290 285 282 280 279 278 278 280 280 278 276 273 270 266 263 260 258 256 253
339 336 332 329 327 324 321 319 317 314 312 311 309 305 303 301 299 298 297 295 294 293 291 290 289 287 286 285 283 281 281 280 279 278 275 271 268 266 261 258 256 253
338 336 332 328 324 321 319 318 315 311 308 307 305 302 300 299 297 296 294 292 290 288 287 287 287 289 290 289 288 286 283 280 278 277 276 273 271 269 265 261 258 254
338 336 333 327 321 317 317 317 313 309 305 303 301 298 296 296 295 293 292 290 289 288 287 284 284 287 290 289 287 287 284 280 277 275 272 270 269 268 265 262 259 256
338 335 332 328 321 316 316 316 313 309 305 303 300 297 294 293 291 290 290 291 291 290 290 288 286 287 289 288 286 285 283 278 273 270 268 266 265 263 261 260 258 257